Location: Les Thiberg�res
(47.8554°N, 1.0978°W)
Time: 15:52:55
(UTC+00:00)

GEOS 3 Rocket - Pass Details

Date: 17 February 2020
Orbit: 777 x 842 km, 115.0° (Epoch: 07 April)

Event Time Altitude Azimuth Distance (km) Brightness Sun altitude
Rises 05:50:46 0° 37° (NE) 3,358 7.3 -13.6°
Reaches altitude 10° 05:53:09 10° 31° (NNE) 2,432 6.5 -13.2°
Maximum altitude 05:58:08 44° 321° (NW) 1,144 4.1 -12.4°
Enters shadow 06:02:36 13° 253° (WSW) 2,245 5.3 -11.6°
